Flag for United Kingdom Weather past 2 weeks in Colchester, England, United Kingdom

Now
50 °F

Fog.


Feels Like: 44 °F
Forecast: 46 / 64 °F
Wind: 16 mph from Northeast

Location: Cranfield


UV Index: 3 (Moderate)

Visibility: 2 mi


Pressure: 29.77 "Hg

Humidity: 94%

Dew point: 48 °F

Location of ColchesterLocation

Historic Weather in Colchester

°F

Colchester temperature yesterday

Maximum temperature yesterday: 55 °F (at 4:50 PM)
Minimum temperature yesterday: 45 °F (at 8:50 AM)
Average temperature yesterday: 50 °F

Past Weeks' High & Low Weather Summary

 TemperatureHumidityPressure
High63 °F (Apr 16, 5:50 PM)100% (Apr 6, 8:50 AM)30.45 "Hg (Apr 6, 8:50 AM)
Low39 °F (Apr 14, 4:50 PM)39% (Apr 16, 5:50 PM)29.59 "Hg (Apr 7, 5:50 PM)
Average54 °F70%30.11 "Hg
* Reported Apr 5 9:20 AM — Apr 20 9:20 AM, Colchester, Weather by CustomWeather, © 2014

Note: Actual official high and low records may vary slightly from our data, if they occured in-between our weather recording intervals... More about our weather records

Advertising

Historic Weather Conditions — Data for Previous 24 hours

 ConditionsComfort  
Time TempWeatherWind HumidityBarometerVisibility
9:20 AM
Apr 20
50 °FFog.16 mph94%29.77 "Hg2 mi
8:50 AM48 °FFog.14 mph100%29.77 "Hg2 mi
4:50 PM
Apr 19
55 °FPassing clouds.14 mph55%30.04 "HgN/A
4:20 PM54 °FScattered clouds.14 mph58%30.04 "HgN/A
3:50 PM54 °FScattered clouds.12 mph63%30.04 "HgN/A
3:20 PM54 °FScattered clouds.10 mph63%30.04 "HgN/A
2:50 PM54 °FScattered clouds.12 mph67%30.07 "HgN/A
2:20 PM52 °FScattered clouds.12 mph67%30.07 "HgN/A
1:50 PM52 °FScattered clouds.12 mph67%30.07 "HgN/A
1:20 PM50 °FPartly sunny.12 mph67%30.07 "HgN/A
12:50 PM52 °FPartly sunny.10 mph62%30.07 "HgN/A
12:20 PM52 °FScattered clouds.10 mph67%30.07 "HgN/A
11:50 AM48 °FScattered clouds.13 mph66%30.09 "HgN/A
11:20 AM48 °FPartly sunny.12 mph66%30.09 "HgN/A
10:50 AM48 °FPartly sunny.14 mph66%30.09 "HgN/A
10:20 AM46 °FPartly sunny.15 mph71%30.09 "HgN/A
Weather by CustomWeather, © 2014

See weather overview